{"data":{"norad_id":58384,"intl_designator":"2023-178L","name":"STARLINK-30825","alt_names":[],"object_type":"PAYLOAD","status":"ACTIVE","operator":null,"country":"US","launch_date":"2023-11-20","launch_site_code":"AFWTR","launch_vehicle":null,"mission":null,"orbit_class":"UNKNOWN","rcs_meters":null,"size_class":null,"mass_kg":null,"dimensions":null,"purposes":["comms"],"wikipedia_slug":null,"has_3d_model":false,"image_url":null,"decayed_at":null,"tle_current":{"epoch":"2026-05-25T00:48:03.796128Z","epoch_age_seconds":76136,"freshness":"FRESH","line1":"1 58384U 23178L   26145.03337727  .00001073  00000+0  42891-4 0  9997","line2":"2 58384  53.1612   5.4691 0001050  80.8794 279.2327 15.34394344141597","mean_motion":15.34394344,"eccentricity":0.000105,"inclination_deg":53.1612,"raan_deg":5.4691,"arg_perigee_deg":80.8794,"mean_anomaly_deg":279.2327,"bstar":4.2891e-5,"rev_number":14159,"period_min":93.848104017777,"perigee_km":462.00176109233,"apogee_km":463.43834107306,"semimajor_km":6840.8570510827,"source":"CELESTRAK","updated_at":"2026-05-25T13:38:18.613880Z"}}}